Location: Bor�um
(53.3426°N, 7.2283°E)
Time: 07:34:01
(UTC+00:00)

Daily predictions for brighter satellites

Satellite Brightness Start Highest point End
(mag) Time Altitude Azimuth Time Altitude Azimuth Time Altitude Azimuth
NOSS 2-2 (C) 4.3 16:30:30 10° NW 16:35:31 73° NE 16:42:31 10° SE
Timation 2 Rocket 4.1 16:31:29 10° NNW 16:38:02 74° NE 16:44:49 10° SE
Lacrosse 5 2.1 16:33:31 10° W 16:38:34 69° NNW 16:43:39 10° ENE
Cosmos 1825 Rocket 3.7 16:34:42 10° N 16:39:08 58° ENE 16:43:29 10° SSE
ADEOS Rocket 3.2 16:35:55 10° NNE 16:42:14 75° ESE 16:49:14 10° S
Envisat 3.5 16:39:40 10° S 16:44:43 69° WSW 16:49:50 10° NNW
FALCON 9 DEB 3.1 16:41:42 10° W 16:45:09 85° S 16:48:35 10° E
Okean O Rocket 1.6 16:42:24 10° SSE 16:46:47 90° W 16:51:10 10° NNW
ERBS 2.8 16:44:22 10° W 16:47:39 52° NNW 16:50:57 10° ENE
YAOGAN 1 3.8 16:45:30 10° ESE 16:48:51 22° ENE 16:52:14 10° N
USA 281 3.5 16:43:10 10° SSE 16:49:44 76° WSW 16:56:21 10° NNW
Landsat 5 3.5 16:47:09 10° NNE 16:51:01 78° WNW 16:54:58 10° SSW
Meteor 2-14 Rocket 4.4 16:46:11 10° N 16:52:23 79° ENE 16:58:30 10° SSE
Cosmos 2219 3.3 16:47:38 10° NNW 16:53:23 63° NE 16:59:06 10° SE
Feng Yun 1-1 Rocket 4.4 16:49:23 10° SE 16:55:13 63° ENE 17:01:05 10° NNW
CZ-2C R/B 4.0 16:50:14 10° ESE 16:55:14 32° ENE 17:00:05 10° N
SMAP 3.3 16:51:01 10° S 16:55:41 76° WSW 17:00:22 10° NNW
Cosmos 1758 Rocket 3.8 16:53:30 10° NNW 16:57:56 77° W 17:02:18 10° S
Cosmos 1943 Rocket 3.7 16:53:18 10° WSW 16:58:11 31° NW 17:03:05 10° NNE
Cosmos 1726 Rocket 4.0 16:54:32 10° SSE 16:58:35 39° E 17:02:42 10° NNE
Cosmos 1328 4.4 16:55:35 10° NNW 16:59:30 62° W 17:03:24 10° S
NOSS 2-1 (E) 3.9 16:56:12 10° WSW 16:59:30 47° NNW 17:03:24 10° NE
USA 307 2.9 16:56:00 10° W 17:00:20 89° S 17:04:38 10° ESE
Cosmos 2082 4.2 16:56:31 10° NNW 17:01:55 40° NE 17:07:18 10° ESE
Cosmos 1726 4.2 16:59:57 10° SW 17:03:15 29° WNW 17:06:33 10° N
CZ-4B R/B 1.5 17:01:04 10° NNE 17:04:14 46° E 17:07:19 10° S
USA 308 2.9 17:00:51 10° WNW 17:05:10 87° SSW 17:09:20 11° ESE
Cosmos 2228 3.0 17:01:25 10° S 17:05:36 59° E 17:09:50 10° NNE
YAOGAN 6 4.0 17:02:27 10° S 17:05:58 44° W 17:09:33 10° NNW
Cosmos 2278 Rocket 4.4 17:02:59 10° NW 17:06:03 15° NNW 17:09:08 10° NNE
Cosmos 1939 Rocket 3.0 17:02:45 10° SE 17:06:35 50° ENE 17:10:23 10° N
ATLAS 5 CENTAUR R/B 2.8 17:04:06 10° W 17:08:12 37° NNW 17:12:56 10° NE
Cosmos 1452 Rocket 4.0 17:06:12 10° SW 17:11:26 65° WNW 17:16:44 10° NNE
Helios 1A Rocket 3.2 17:09:51 10° SE 17:13:47 45° ENE 17:17:43 10° N
Cosmos 1606 Rocket 3.5 17:09:48 10° S 17:14:08 68° E 17:18:33 10° NNE
GENESIS II 4.5 17:12:41 10° SSW 17:16:38 53° SE 17:20:07 13° NE
CZ-4B R/B 4.3 17:12:29 10° S 17:17:54 50° W 17:23:16 10° NNW
SKYMED 2 4.0 17:14:13 10° NNE 17:18:19 39° E 17:22:22 10° SSE
ARGOS 4.1 17:14:13 10° ESE 17:18:45 28° ENE 17:23:16 10° N
Cosmos 1689 Rocket 2.9 17:17:03 10° NE 17:19:38 28° E 17:22:10 10° SSE
Okean-O 2.8 17:16:00 10° SE 17:20:16 48° ENE 17:24:33 10° N
Cosmos 1745 Rocket 4.3 17:17:03 10° N 17:23:05 46° ENE 17:29:09 10° SE
Cosmos 1656 4.4 17:18:13 10° SSE 17:23:06 32° ESE 17:28:04 10° NE
Cosmos 1400 Rocket 3.2 17:21:58 10° SSE 17:25:52 43° E 17:29:45 10° NNE
PSLV R/B 4.5 17:22:41 10° NNE 17:26:37 37° E 17:30:29 10° SSE
Cosmos 2227 Rocket 2.2 17:21:41 10° NNW 17:27:23 81° ENE 17:33:03 10° SE
Cosmos 2058 3.4 17:24:11 10° N 17:28:02 37° ENE 17:31:51 10° SE
H-2A R/B 2.6 17:23:12 10° SE 17:28:12 39° ENE 17:33:14 10° N
Ariane Rocket 4.4 17:27:38 17° ENE 17:29:10 19° NE 17:32:42 10° N
Cosmos 1892 2.9 17:25:38 10° N 17:29:26 49° ENE 17:33:13 10° SSE
GEOS 3 Rocket 3.7 17:24:33 10° ESE 17:29:51 66° NE 17:35:14 10° NW
CZ-4 R/B 1.4 17:26:47 10° SE 17:30:33 50° ENE 17:34:19 10° N
Cosmos 2263 Rocket 3.3 17:27:58 10° NNW 17:32:48 27° NE 17:35:33 19° ENE
Cosmos 1408 3.1 17:30:12 10° N 17:33:37 36° ENE 17:37:02 10° SE
BREEZE-M DEB (TANK) 4.3 17:31:13 10° WSW 17:35:12 81° SSE 17:46:14 17° E
BREEZE-M R/B 4.3 17:26:21 10° W 17:35:15 53° S 17:37:09 21° ESE
CSL-04 Rocket 4.0 17:31:14 10° SE 17:36:30 46° ENE 17:41:43 10° N
NOSS 3-4 (A) 4.0 17:32:36 10° NW 17:39:06 52° NNE 17:44:11 20° E
NOSS 3-4 (C) 4.0 17:32:43 10° NW 17:39:11 52° NNE 17:44:16 20° E
CZ-4C R/B 3.4 17:33:46 10° NW 17:39:40 39° NNE 17:44:24 19° ENE
Cosmos 1953 Rocket 4.3 17:35:54 10° NNW 17:40:15 57° W 17:44:35 10° S
Cosmos 1300 2.9 17:40:25 10° SSW 17:44:13 74° WNW 17:48:04 10° N
SL-4 R/B 1.8 17:43:53 10° W 17:47:24 66° S 17:49:04 30° ESE
Cosmos 2058 Rocket 3.0 17:43:03 10° S 17:47:32 75° E 17:52:04 10° NNE
Cosmos 1697 Rocket 3.5 17:43:02 10° SSE 17:47:44 28° ESE 17:49:38 23° ENE
Cosmos 1331 Rocket 4.1 17:43:08 10° SSW 17:48:17 75° WNW 17:53:29 10° NNE
Cosmos 1346 Rocket 2.7 17:44:24 10° N 17:48:23 62° ENE 17:52:19 10° SSE
IRS-1C Rocket 4.4 17:44:12 10° S 17:49:26 69° WSW 17:54:44 10° NNW
CZ-2D R/B 3.3 17:45:42 10° SSE 17:49:30 81° WSW 17:53:20 10° NNW
SeaSat 1 2.7 17:46:27 21° ESE 17:49:34 49° NE 17:54:20 10° NNW
Cosmos 1825 2.6 17:47:02 10° N 17:50:37 38° ENE 17:51:37 31° ESE
USA 305 3.2 17:46:42 10° WNW 17:50:59 64° SSW 17:53:26 24° SE
Cosmos 1709 Rocket 4.3 17:46:46 10° N 17:52:52 45° ENE 17:58:56 10° SE
Cosmos 44 3.1 17:51:12 10° SW 17:55:46 81° SE 17:59:04 21° NE
USA 215 3.3 17:51:39 23° E 17:56:00 71° NNE 18:02:31 10° WNW
Cosmos 1315 Rocket 3.6 17:53:27 10° SSE 17:56:19 31° ESE 17:56:19 31° ESE
USA 306 3.3 17:53:07 10° WNW 17:57:22 60° SSW 17:59:35 26° SE
SAR-Lupe-4 3.8 17:54:08 10° N 17:57:44 69° WNW 18:01:17 10° SSW
ERS-2 3.4 17:54:18 10° N 17:57:45 41° WNW 18:01:12 10° SW
SJ-11-01 4.2 17:54:44 10° SSE 17:59:19 60° ENE 18:03:58 10° N
ATLAS 2AS CENTAUR R/B 3.1 17:53:41 10° NW 18:01:17 55° NNE 18:05:16 27° E
BREEZE-M R/B 3.9 17:57:32 10° W 18:01:22 58° S 18:05:18 25° ESE
Cosmos 968 Rocket 3.7 17:57:30 10° NNW 18:02:44 71° WSW 18:07:52 10° SSE
Cosmos 1340 3.7 17:59:34 10° NNW 18:03:14 48° W 18:06:52 10° S
SJ 16-02 3.4 18:02:22 10° N 18:04:08 14° NNE 18:04:08 14° NNE
COSMO-SKYMED 1 2.7 18:02:08 10° NNE 18:06:30 79° WNW 18:10:50 10° SSW
Cosmos 2297 Rocket 3.1 18:01:41 10° NW 18:07:08 49° WSW 18:12:34 10° S
MOS 1 Rocket 3.6 18:02:45 10° NNE 18:07:11 43° E 18:11:51 10° S
HJ-1C 3.3 18:07:27 58° E 18:07:32 58° ENE 18:10:52 10° N
Cosmos 1076 Rocket 3.3 18:04:07 10° N 18:08:23 68° ENE 18:11:35 17° SSE
COSMOS 2455 4.4 18:04:34 10° NW 18:09:17 23° N 18:12:00 17° NE
Cosmos 2369 Rocket 4.3 18:05:02 10° WNW 18:09:21 21° NNW 18:13:41 10° NNE
Cosmos 1777 Rocket 4.5 18:04:50 10° NNW 18:09:45 40° NE 18:10:50 36° E
Cosmos 1980 Rocket 3.9 18:06:07 10° SSE 18:07:19 15° SE 18:07:19 15° SE
Aureole 3 Rocket 3.6 18:08:56 10° SSW 18:13:08 71° WNW 18:19:08 10° N
Cosmos 2315 Rocket 4.3 18:11:04 10° SSE 18:16:44 40° E 18:22:26 10° NNE
CSL-04 Debris 4.1 18:11:26 10° SSE 18:16:53 88° ENE 18:22:24 10° NNW
S3M 3.8 18:11:04 10° S 18:17:09 71° E 18:23:19 10° NNE
Cosmos 1302 Rocket 4.1 18:14:00 10° SSW 18:19:17 78° WNW 18:24:37 10° NNE
Lacrosse 5 2.1 18:17:00 10° WNW 18:22:01 58° N 18:23:30 41° ENE
FALCON 9 DEB 3.2 18:18:42 10° W 18:22:06 65° SSW 18:22:07 65° SSW
Resurs 01 Rocket 3.9 18:24:27 12° NNE 18:24:27 12° NNE 18:25:06 10° NNE
FALCON 9 DEB 3.9 18:21:04 10° SW 18:23:30 40° SSW 18:23:30 40° SSW
ERBS 3.0 18:21:01 10° WNW 18:24:02 44° N 18:24:02 44° N
YAOGAN 1 3.2 18:20:23 10° S 18:24:38 57° W 18:28:56 10° NNW
Aureole 3 4.3 18:24:00 10° SW 18:26:49 34° WNW 18:29:36 10° N
FALCON 9 DEB 4.0 18:25:15 10° WSW 18:27:30 38° SW 18:27:30 38° SW
Cosmos 1812 Rocket 4.1 18:27:34 10° S 18:35:45 13° NNE 18:36:17 10° NNE
Cosmos 1455 3.1 18:28:54 10° S 18:31:14 36° S 18:31:14 36° S
Cosmos 1503 Rocket 4.3 18:27:52 10° NNW 18:33:03 66° WSW 18:37:11 16° S
Meteor 2-3 Rocket 3.9 18:28:47 10° N 18:34:19 48° ENE 18:34:44 47° E
CZ-2C R/B 3.8 18:29:09 10° S 18:34:51 59° W 18:40:23 10° NNW
CZ-4B R/B 4.4 18:34:06 10° NNW 18:36:11 16° WNW 18:38:14 10° W
DMSP B5D1-3 4.4 18:32:30 10° NNE 18:37:42 79° ESE 18:42:51 10° SSW
USA 307 3.8 18:36:10 10° W 18:40:10 39° SSW 18:40:52 36° S
Cosmos 1354 Rocket 4.4 18:39:24 10° NNW 18:44:35 61° WSW 18:47:53 22° S
USA 308 3.9 18:41:01 10° W 18:44:58 37° SSW 18:45:31 35° SSW
Meteor 2-10 Rocket 3.6 18:40:57 10° SSW 18:46:13 74° WNW 18:51:21 10° N
Cosmos 2082 4.4 18:40:41 10° NW 18:46:14 52° WSW 18:50:45 15° S
Cosmos 2278 Rocket 4.2 18:49:35 10° NNW 18:52:41 15° NNE 18:53:39 14° NNE
ATLAS 5 CENTAUR R/B 3.4 18:50:01 10° NW 18:54:04 27° N 18:55:01 25° NNE
SJ-6B 4.4 18:56:21 27° N 18:56:21 27° N 18:58:22 10° N
Cosmos 2151 3.5 18:52:46 10° NNW 18:56:04 53° NNW 18:56:04 53° NNW
Cosmos 1992 Rocket 3.9 18:53:03 10° SSW 18:58:16 84° WNW 18:59:48 47° NNE
ARGOS 3.5 18:54:41 19° S 18:58:39 65° WSW 19:04:05 10° NNW
SL-08 RB Rocket 3.7 19:00:38 74° WNW 19:00:38 74° WNW 19:04:57 10° NNW
Cosmos 2369 3.5 18:57:31 10° SSW 19:03:11 77° SE 19:03:11 77° SE
CZ-4 R/B 4.0 19:03:03 10° SW 19:05:52 19° W 19:08:41 10° NW
Cosmos 1844 Rocket 3.9 19:01:11 10° NNW 19:05:18 29° NNE 19:05:18 29° NNE
Cosmos 1656 4.2 19:00:58 10° SW 19:06:29 58° NW 19:10:04 22° NNE
Geosat 3.9 19:06:43 86° WNW 19:06:43 86° WNW 19:11:45 10° SW
Ariane Rocket 3.0 19:07:51 78° N 19:07:51 78° N 19:12:38 10° NNW
H-2A R/B 3.2 19:02:24 10° S 19:07:34 44° W 19:12:48 10° NNW
Cosmos 2227 Rocket 4.5 19:06:36 10° NW 19:10:49 22° WSW 19:15:01 10° SSW
Cosmos 2263 Rocket 2.1 19:11:44 10° NNW 19:17:16 84° NW 19:17:16 84° NW
Cosmos 1825 4.5 19:22:56 10° NW 19:25:56 22° W 19:26:28 21° W
SL-4 R/B 4.3 19:23:20 10° W 19:24:38 19° WSW 19:24:38 19° WSW
SeaSat 1 3.6 19:26:16 34° SW 19:27:12 37° WSW 19:31:48 10° NW
CZ-4C R/B 2.7 19:22:26 10° NW 19:29:14 73° NE 19:29:36 72° ENE
NOSS 3-4 (A) 4.0 19:23:33 10° NW 19:30:21 66° SW 19:31:39 56° S
NOSS 3-4 (C) 4.0 19:23:39 10° NW 19:30:27 66° SW 19:31:43 57° S
Cosmos 1697 Rocket 2.9 19:25:43 10° SW 19:31:18 65° NW 19:31:25 65° NW
Cosmos 2184 Rocket 4.1 19:25:34 10° N 19:31:04 68° N 19:31:04 68° N
USA 215 3.2 19:39:00 70° SSW 19:39:05 70° SSW 19:45:38 10° WNW
NOSS 3-3 (A) 4.1 19:36:31 10° SW 19:41:47 69° WSW 19:41:47 69° WSW
NOSS 3-3 (C) 4.1 19:36:37 10° SW 19:41:54 69° WSW 19:41:54 69° WSW
SJ 16-02 3.7 19:39:52 10° NNW 19:41:07 18° NNW 19:41:07 18° NNW
Cosmos 2074 Rocket 4.3 19:45:51 10° NNW 19:51:04 61° NW 19:51:04 61° NW
ATLAS 2AS CENTAUR R/B 3.0 19:45:04 10° NW 19:52:30 62° SW 19:52:43 61° SW
Cosmos 1980 Rocket 4.4 19:48:19 10° SW 19:49:11 15° SW 19:49:11 15° SW
COSMOS 2455 4.1 19:51:08 10° NW 19:55:08 33° N 19:55:08 33° N
Resurs 01 Rocket 4.3 20:02:02 14° NNW 20:02:02 14° NNW 20:02:40 10° NNW
Lacrosse 5 3.6 20:00:11 10° WNW 20:02:41 30° WNW 20:02:41 30° WNW
Cosmos 2278 Rocket 4.4 20:33:39 10° NNW 20:35:29 19° N 20:35:29 19° N
ATLAS 5 CENTAUR R/B 4.3 20:35:01 10° NW 20:36:31 19° NW 20:36:31 19° NW
ATLAS CENTAUR R/B 4.5 20:30:29 10° W 20:54:22 78° N 20:55:04 76° NE
CZ-4C R/B 4.3 21:11:06 10° NW 21:14:47 30° WNW 21:14:47 30° WNW
